Regional Weather Roundup
Issued by NWS

Home | Current Version | Previous Version | Graphics & Text | Print | Product List | Glossary On
Versions: 1 2 3 4 5 6 7 8 9 10 11 12 13 14 15 16 17 18 19 20 21 22 23 24 25 26 27 28 29 30 31 32 33 34 35 36 37 38 39 40 41 42 43 44 45 46 47 48 49 50
000
ASUS43 KTOP 221008
RWRKS

WEATHER ROUNDUP FOR KANSAS
NATIONAL WEATHER SERVICE GOODLAND KS
400 AM CST MON JAN 22 2018

NOTE:  "FAIR" INDICATES FEW OR NO CLOUDS BELOW 12,000 FEET WITH NO
SIGNIFICANT WEATHER AND/OR OBSTRUCTIONS TO VISIBILITY.

KSZ001>006-013>018-027>032-041>047-221100-
NORTHWEST KANSAS

CITY           SKY/WX    TMP DP  RH WIND       PRES   REMARKS
GOODLAND       FOG       27  26  96 NW38G55   29.75R VSB 1/4 WCI   9
HAYS           LGT SNOW  32  30  93 NW26G35   29.52R FOG     WCI  18
HILL CITY      LGT SNOW  31  30  96 NW26G38   29.58S FOG     WCI  17
RUSSELL        LGT SNOW  35  35 100 NW18      29.47S FOG     WCI  24
$$

KSZ061>065-074>080-084>089-221100-
SOUTHWEST KANSAS

CITY           SKY/WX    TMP DP  RH WIND       PRES   REMARKS
DODGE CITY     CLOUDY    32  24  72 NW37G52   29.63R WCI  16
ELKHART        CLEAR     31  25  76 NW25G36   29.84S WCI  18
GARDEN CITY    CLOUDY    30  25  81 NW32G46   29.70R WCI  14
GREAT BEND     LGT RAIN  34  31  88 W22G28    29.50S WCI  22
LIBERAL        CLOUDY    31  23  72 NW30G41   29.79S WCI  16
PRATT          CLOUDY    34  27  75 NW28G36   29.55S WCI  20
$$

KSZ066>073-081>083-090>101-221100-
SOUTHEAST KANSAS

CITY           SKY/WX    TMP DP  RH WIND       PRES   REMARKS
CHANUTE        CLEAR     38  32  79 SW15      29.55S WCI  29
COFFEYVILLE    CLEAR     41  31  67 SW17      29.60F
HUTCHINSON     CLOUDY    36  33  89 W15       29.48F WCI  27
MEDICINE LODGE   N/A     42  27  55 W21G38    29.58F
NEWTON         CLOUDY    34  32  92 SW14      29.48F WCI  25
PARSONS        CLEAR     39  31  72 SW14G23   29.59S WCI  31
WICHITA INTL   CLOUDY    38  32  79 W18G24    29.52F WCI  28
WICHITA JABRA  CLOUDY    36  32  85 SW15      29.50F WCI  27
WICHITA MCCONL CLOUDY    37  30  75 SW16G23   29.51F WCI  28
WINFIELD       CLOUDY    37  31  78 SW17      29.58F WCI  27
$$

KSZ007>012-019>026-033>040-048>060-102>105-221100-
NORTHEAST KANSAS

CITY           SKY/WX    TMP DP  RH WIND       PRES   REMARKS
CONCORDIA      LGT RAIN  37  37 100 N10       29.46F VSB 1/2 WCI  30
EMPORIA        PTCLDY    31  29  92 SW12      29.48F WCI  22
LAWRENCE       CLEAR     40  37  89 SW14      29.45F WCI  32
MANHATTAN      CLOUDY    37  35  92 SW6       29.47F FOG
MARYSVILLE     FOG       36  36 100 N3        29.46S VSB 1/2
OLATHE IND     PTCLDY    39  38  96 SW15      29.46S WCI  31
OLATHE EXE     MOCLDY    43  43 100 SW12      29.45S
SALINA         CLOUDY    36  35  96 SW6       29.46F
TOPEKA BILLARD CLEAR     39  37  92 W7        29.46F
TOPEKA FORBES  CLEAR     38  35  89 SW13      29.45F WCI  30
$$




USA.gov is the U.S. government's official web portal to all federal, state and local government web resources and services.